Regional Weather Roundup
Issued by NWS Wakefield, VA

Home | Current Version | Previous Version | Text Only | Print | Product List | Glossary On
Versions: 1 2 3 4 5 6 7 8 9 10 11 12 13 14 15 16 17 18 19 20 21 22 23 24 25 26 27
000
ASUS41 KAKQ 202016
RWRAKQ

REGIONAL WEATHER ROUNDUP
NATIONAL WEATHER SERVICE WAKEFIELD VA
400 PM EDT WED SEP 20 2017

Note: "fair" indicates few or no clouds below 12,000 feet with no
significant weather and/or obstructions to visibility. * = Denotes
station may not report precipitation (e.g., rain,snow,etc.),
thunder or fog.

VAZ042-051-052>054-056-202100-
NORTHERN VIRGINIA

CITY           SKY/WX    TMP DP  RH WIND       PRES   REMARKS
WASH NATIONAL  MOSUNNY   87  64  46 NW13      29.92F
DULLES         MOSUNNY   86  59  39 NW9       29.94F
FORT BELVOIR   SUNNY     88  57  35 NW9       29.92F
QUANTICO       SUNNY     88  59  37 N9        29.93F
FREDERICKSBRG* SUNNY     88  62  42 NW8       29.91F
STAFFORD*      SUNNY     86  57  37 NW6       29.97F
WARRENTON      SUNNY     88  60  38 N8        29.94S
CULPEPER*      SUNNY     87  65  47 N7        29.94F
MANASSAS*      SUNNY     87  62  43 N9        29.93F
LEESBURG*      SUNNY     86  63  45 N12       29.95F
WINCHESTER     SUNNY     82  57  42 NW6       29.96F
FRONT ROYAL*   CLEAR     86  59  39 N8        29.95F
LURAY*         PTCLDY    86  61  42 CALM      29.96S
$$

VAZ048-049-060>072-079>083-202100-
CENTRAL AND SOUTH CENTRAL VIRGINIA

CITY           SKY/WX    TMP DP  RH WIND       PRES   REMARKS
RICHMOND       MOSUNNY   88  61  40 NW7       29.92F
CHESTERFIELD*  NOT AVBL
PETERSBURG*    SUNNY     86  60  41 W3        29.94F
HANOVER        SUNNY     88  62  41 VRB7      29.94F
TAPPAHANNOCK*  SUNNY     88  45  22 NW5       29.93F
QUINTON*       FAIR      86  62  44 NW3       29.92F
CHARLOTTSVILLE SUNNY     89  61  38 CALM      29.94F
GORDONSVILLE*  CLEAR     86  65  49 CALM      29.93F
ORANGE*        SUNNY     84  63  48 CALM      29.93F
LOUISA*        SUNNY     86  61  42 NW3       29.94F
BUMPASS*       NOT AVBL
FARMVILLE*     MOSUNNY   90  62  39 NW3       29.93F
CREWE*         FAIR      87  66  48 NW3       29.94F
FORT PICKETT*  FAIR      87  64  46 W5        29.94F
CHASE CITY*    FAIR      87  65  48 N5        29.95F
CLARKSVILLE*   FAIR      88  63  42 CALM      29.94F
SOUTH HILL*    MOSUNNY   87  68  52 NW3       30.00F
LAWRENCEVILLE* FAIR      87  66  49 MISG      29.94F
EMPORIA*       MOSUNNY   84  64  51 NW3       29.94F
$$

VAZ088>098-202100-
SOUTHEAST VIRGINIA

CITY           SKY/WX    TMP DP  RH WIND       PRES   REMARKS
NORFOLK        SUNNY     87  62  43 VRB6      29.91F
VIRGINIA BEACH PTSUNNY   86  63  45 NW13      29.90F
NORFOLK NAVAL  MOSUNNY   86  64  47 W13       29.92F
WEST POINT*    SUNNY     88  55  33 NW6       29.92F
SALUDA*        FAIR      83  66  57 NW7       29.91F
NEWPORT NEWS   SUNNY     87  62  43 NW10      29.91F
LANGLEY AFB    MOSUNNY   86  64  48 NW13      29.91F
FORT EUSTIS    SUNNY     90  67  47 W9        29.90F
WILLIAMSBURG*  SUNNY     91  66  43 CALM      29.93F
HR EXEC AP*    FAIR      86  66  51 VRB5      29.93F
FRANKLIN*      SUNNY     86  63  46 NW10      29.93F
US460-WAKEFLD  SUNNY     87  64  46 VRB6      29.93F
$$

VAZ020-022-025-037-045-202100-
WEST CENTRAL AND SOUTHWEST VIRGINIA

CITY           SKY/WX    TMP DP  RH WIND       PRES   REMARKS
STAUNTON*      CLOUDY    79  64  59 NW8       30.00S
WAYNESBORO*    CLOUDY    78  67  67 SW5       30.00F
HOT SPRINGS VA PTSUNNY   67  57  68 NW8       30.13F THUNDER
LYNCHBURG      SUNNY     86  60  41 NE3       29.97F
DANVILLE       MOSUNNY   87  66  49 NW3       29.95F
SOUTH BOSTON*  FAIR      87  63  43 CALM      29.94F
MARTINSVILLE   MOSUNNY   83  65  54 CALM      30.00F
ROANOKE        PTSUNNY   79  64  60 W5        30.01F
BLACKSBURG     MOSUNNY   82  65  57 W7        30.07F
DUBLIN*        CLOUDY    76  65  68 W5        30.07F
MARION*        MOSUNNY   82  56  42 W10       30.10F
HILLSVILLE*    SUNNY     78  54  43 W3        30.07F
RICHLANDS*     FAIR      76  58  54 NW6       30.10F
WISE*          SUNNY     77  59  53 NW6       30.12F
ABINGDON*      MOSUNNY   83  61  45 NW7       30.08F
$$

MDZ021>025-VAZ099-100-202100-
SOUTHERN MARYLAND AND THE DELMARVA PENINSULA

CITY           SKY/WX    TMP DP  RH WIND       PRES   REMARKS
PATUXENT RIVER MOSUNNY   87  65  47 NW10      29.90F
BAY BRIDGE APT SUNNY     84  66  54 N7        29.90F
LEONARDTOWN    SUNNY     84  63  48 NW6       29.93F
DOVER          MOSUNNY   84  84 100 N12       29.88R HX 104
GEORGETOWN     MOSUNNY   84  68  58 NW8       29.89F
EASTON         PTSUNNY   82  66  57 N6        29.94F
CAMBRIDGE      MOSUNNY   82  66  57 NW13      29.90F
SALISBURY      PTSUNNY   85  69  58 NW10G17   29.88F
OCEAN CITY       N/A    N/A N/A N/A MISG      29.88S
WALLOPS ISLAND PTSUNNY   82  70  66 NW9G18    29.88F
ACCOMACK*      MOSUNNY   81  69  66 NW16G23   29.90F
$$

NCZ012>017-030>032-202100-
NORTH CENTRAL AND EASTERN NORTH CAROLINA

CITY           SKY/WX    TMP DP  RH WIND       PRES   REMARKS
ROANOKE RAPIDS FAIR      88  68  51 MISG      29.93F
RALEIGH        MOSUNNY   87  61  41 NW7       29.95F
ELIZABETH CITY SUNNY     88  66  48 NW10      29.92F
AHOSKIE*         N/A     85  68  57 NW6       29.93F
EDENTON*       SUNNY     88  69  52 NW8       29.93F
CURRITUCK*     SUNNY     86  64  47 W7        29.92F
KILL DEVIL HLS SUNNY     82  64  55 CALM      29.91F
MANTEO         SUNNY     84  66  55 NW9       29.92F
CAPE HATTERAS  SUNNY     84  72  67 W8        29.93F
TARBORO*       NOT AVBL
GOLDSBORO      SUNNY     89  69  52 W5        29.92F
WASHINGTON     MOSUNNY   89  69  51 W5        29.93F
GREENVILLE     SUNNY     88  68  51 W7        29.95F
NEW BERN       MOSUNNY   89  69  51 W8        29.94F
WILMINGTON     MOSUNNY   90  64  42 VRB5      29.95F
$$

VAZ048-202100-
ELSEWHERE

CITY           SKY/WX    TMP DP  RH WIND       PRES   REMARKS
HARRISBURG PA  MOSUNNY   85  58  39 N9        29.93S
BALTIMORE      MOSUNNY   87  63  44 NW10G18   29.90F
ANNAPOLIS      SUNNY     87  66  49 NW6       29.90F
ANDREWS AFB    SUNNY     86  58  38 NW12      29.91F
PHILADELPHIA   MOSUNNY   86  62  44 N13       29.87F
HENDERSON NC   MOSUNNY   86  60  40 N5        29.95F
GREENSBORO     MOSUNNY   87  65  47 W9        29.97F
ROCKY MOUNT    SUNNY     88  67  49 NW6       29.93F
$$

VAZ100-202100-
MARINE

STATION/POSITION TIME  TEMP    WIND        PRES    WAVE   SWELL
                       AIR SEA DIR/SP/G            HT/PER HT/PER
                 (UTC) (F)     (DEG/KT/KT) (MB)    (FT/S) (FT/S)
BRANDYWINE LGT   1936   78     320/  8/  9 1012.0S
CAPE MAY NJ      1948   78 74  320/ 12/ 15 1011.0F
LEWES DE         1948   78 74  340/  7/ 11 1011.6F
15NM E FENWICK I 1950   75 71  310/ 14/ 16 1011.7F   7/ 9   7/ 9
OCEAN-CITY-INLET 1948   78 74   10/  5/  7 1012.1F
WACHAPREAGUE VA  1948   82 77  300/  4/ 11 1012.5F
THOMAS POINT MD  2000   80 75  130/  3/  3   N/A
GOOSES REEF MD   2000   80 76  340/  2/  2 1013.4
COVE POINT MD    1948   78     360/  3/  5 1013.4F
SOLOMONS ISLAND  1948   83 76  290/  7/ 10 1012.3F
BISHOPS HEAD MD  1948   81 76  320/ 11/ 16 1012.7F
PINEY POINT MD   1948          310/ 15/ 16   N/A
POTOMAC MD       2000   79 76  290/  8/ 10 1012.0    1
CAMBRIDGE MD     1948   83 76              1013.6F
LEWISETTA VA     1948   82 76  310/ 12/ 15 1012.8F
RAPPAHANNOCK LGT 1948          330/ 11/ 13 1013.3F
STINGRAY PT      2000   81 76  350/  8/ 12 1012.9    1/ 2
YORK RVR RNG VA  1948   81      10/  7/  8   N/A
YORKTOWN VA      1948   81 76  300/  8/  9 1012.7F
JAMESTOWN VA     2000      79  340/  6/  8   N/A     0
DOMINION TERM VA 1948   80     290/  7/ 10 1013.3F
KIPTOPEKE VA     1948      75  340/ 12/ 13   N/A
CHES BAY BRIDGE  1948   80 76  320/  7/  8 1012.8F
CAPE HENRY VA    1948   79     310/  9/ 10   N/A
WILLOUBY STN VA  1936   83     300/  8/  9 1013.2F
S CRANEY ISL VA  1948   84     290/  8/ 12 1012.9F
CAPE HENRY BUOY  2000      75                N/A     5/11   2/11
1ST LANDING BUOY 2000   79 76              1012.6    2/ 4
64NM E OF VA BCH 1950   72 71  310/ 10/ 12 1012.8F  10/10  10/10
DUCK PIER NC     1948   83 75  340/ 14/ 17 1012.5F
44100 DUCK FRF   1935      75                N/A     6/11   3/11
44056 DUCK FRF   2000      76                N/A     6/10   3/11
OREGON INLET NC  1936   83 75  290/ 10/ 13 1013.1F
HATTERAS NC      1948   81 76  270/  8/ 10 1013.6F
DIAMOND SHLS NC  1950   78 76  260/  6/  8 1013.8F   5/11   5/11
CAPE LOOKOUT NC  2000   81     220/  9/ 12 1013.7F
$$




USA.gov is the U.S. government's official web portal to all federal, state and local government web resources and services.